Weather History for Palacios, TX

Change the Weather History Date:

Saturday, October 25, 2014

  Actual Average Record
Temperature  
Mean Temperature 69 °F -  
Max Temperature 82 °F 78 °F 91 °F (1947)
Min Temperature 57 °F 58 °F 41 °F (2005)
Cooling Degree Days 4    
Growing Degree Days 19 (Base 50)    
Moisture  
Dew Point 59 °F    
Average Humidity 71    
Maximum Humidity 90    
Minimum Humidity 42    
Precipitation  
Precipitation 0.00 in - - ()
Sea Level Pressure  
Sea Level Pressure 30.13 in    
Wind  
Wind Speed 5 mph (East)    
Max Wind Speed 12 mph    
Max Gust Speed -    
Visibility 10 miles    
Events      
Averages and records for this station are not official NWS values.
T = Trace of Precipitation, MM = Missing Value Source: NWS Daily Summary

Daily Weather History Graph

Daily Weather History Graph

Search for Another Location

Airport:

Trip Planner

Search our weather history database for the weather conditions in past years. The results will help you decide how hot, cold, wet, or windy it might be!

Date:

Astronomy

Oct. 25, 2014 Rise Set
Actual Time 7:32 AM CDT 6:45 PM CDT
Civil Twilight 7:08 AM CDT 7:09 PM CDT
Nautical Twilight 6:40 AM CDT 7:37 PM CDT
Astronomical Twilight 6:12 AM CDT 8:04 PM CDT
Moon 9:06 AM CDT (10/25) 8:16 PM CDT (10/25)
Length of Visible Light 12h 01m
Length of Day
11h 13m
Waxing Crescent, 3% of the Moon is Illuminated
Oct 25
Waxing Crescent
Oct 30
First Quarter
Nov 6
Full
Nov 14
Last Quarter
Nov 22
New

Hourly Weather History & Observations

Time (CDT) Temp. Heat Index Dew Point Humidity Pressure Visibility Wind Dir Wind Speed Gust Speed Precip Events Conditions
12:53 AM 64.9 °F - 60.1 °F 84% 30.14 in 10.0 mi East 4.6 mph - N/A   Clear
1:53 AM 62.1 °F - 57.9 °F 86% 30.13 in 10.0 mi Calm Calm - N/A   Clear
2:53 AM 61.0 °F - 57.0 °F 87% 30.12 in 10.0 mi East 3.5 mph - N/A   Clear
3:53 AM 59.0 °F - 55.9 °F 90% 30.12 in 10.0 mi North 3.5 mph - N/A   Clear
4:53 AM 60.1 °F - 57.0 °F 90% 30.12 in 10.0 mi North 4.6 mph - N/A   Clear
5:53 AM 60.1 °F - 55.9 °F 86% 30.13 in 10.0 mi NNE 4.6 mph - N/A   Clear
6:53 AM 57.9 °F - 54.0 °F 87% 30.14 in 10.0 mi North 5.8 mph - N/A   Clear
7:53 AM 59.0 °F - 55.0 °F 87% 30.15 in 10.0 mi North 5.8 mph - N/A   Clear
8:53 AM 64.0 °F - 59.0 °F 84% 30.17 in 10.0 mi North 5.8 mph - N/A   Clear
9:53 AM 72.0 °F - 59.0 °F 64% 30.19 in 10.0 mi North 6.9 mph - N/A   Clear
10:53 AM 77.0 °F - 57.9 °F 52% 30.18 in 10.0 mi NE 4.6 mph - N/A   Clear
11:53 AM 80.1 °F 80.4 °F 57.0 °F 45% 30.18 in 10.0 mi ENE 4.6 mph - N/A   Clear
12:53 PM 81.0 °F 81.0 °F 57.0 °F 44% 30.15 in 10.0 mi Variable 4.6 mph - N/A   Clear
1:53 PM 81.0 °F 80.8 °F 55.9 °F 42% 30.13 in 10.0 mi South 10.4 mph - N/A   Clear
2:53 PM 81.0 °F 81.1 °F 57.9 °F 45% 30.11 in 10.0 mi SSE 10.4 mph - N/A   Clear
3:53 PM 80.1 °F 80.7 °F 59.0 °F 48% 30.10 in 10.0 mi SSE 11.5 mph - N/A   Clear
4:53 PM 80.1 °F 80.6 °F 57.9 °F 47% 30.10 in 10.0 mi SSE 9.2 mph - N/A   Clear
5:53 PM 78.1 °F - 60.1 °F 54% 30.10 in 10.0 mi SSE 9.2 mph - N/A   Clear
6:53 PM 72.0 °F - 62.1 °F 71% 30.10 in 10.0 mi SSE 6.9 mph - N/A   Clear
7:53 PM 70.0 °F - 63.0 °F 78% 30.10 in 10.0 mi SE 5.8 mph - N/A   Clear
8:53 PM 69.1 °F - 63.0 °F 81% 30.11 in 10.0 mi SE 5.8 mph - N/A   Clear
9:53 PM 69.1 °F - 63.0 °F 81% 30.11 in 10.0 mi SE 5.8 mph - N/A   Clear
10:53 PM 68.0 °F - 63.0 °F 84% 30.10 in 10.0 mi SSE 5.8 mph - N/A   Clear
11:53 PM 68.0 °F - 63.0 °F 84% 30.09 in 10.0 mi SSE 4.6 mph - N/A   Clear